Time,TemperatureF,DewpointF,PressureIn,WindDirection,WindDirectionDegrees,WindSpeedMPH,WindSpeedGustMPH,Humidity,HourlyPrecipIn,Conditions,Clouds,dailyrainin,SoftwareType,DateUTC
2013-05-13 15:41:00,54.0,11.4,29.29,West,270,2.9,2.9,18,0.00,,OVC060,0.00,VWS V14.01,2013-05-13 19:41:00,
2013-05-13 15:42:00,54.0,11.4,29.29,West,270,2.9,2.9,18,0.00,,OVC060,0.00,VWS V14.01,2013-05-13 19:42:00,
2013-05-13 15:43:00,54.0,11.4,29.29,WNW,292,4.3,4.3,18,0.00,,OVC060,0.00,VWS V14.01,2013-05-13 19:43:00,
2013-05-13 15:44:00,54.0,11.4,29.29,West,270,3.1,4.3,18,0.00,,OVC060,0.00,VWS V14.01,2013-05-13 19:44:00,
2013-05-13 15:45:00,54.0,11.4,29.29,WSW,248,3.8,3.8,18,0.00,,OVC060,0.00,VWS V14.01,2013-05-13 19:45:00,
2013-05-13 15:46:00,54.0,11.4,29.29,WSW,248,0.0,0.0,18,0.00,,OVC060,0.00,VWS V14.01,2013-05-13 19:46:00,
2013-05-13 15:47:00,53.8,11.3,29.29,West,270,2.0,2.0,18,0.00,,OVC060,0.00,VWS V14.01,2013-05-13 19:47:00,
2013-05-13 15:48:00,53.8,11.3,29.29,West,270,4.0,4.0,18,0.00,,OVC060,0.00,VWS V14.01,2013-05-13 19:48:00,
2013-05-13 15:49:00,53.8,11.3,29.29,West,270,2.9,4.0,18,0.00,,OVC060,0.00,VWS V14.01,2013-05-13 19:49:00,
2013-05-13 15:50:00,53.8,11.3,29.29,West,270,2.9,2.9,18,0.00,,OVC060,0.00,VWS V14.01,2013-05-13 19:50:00,
2013-05-13 15:51:00,53.4,11.0,29.29,NNE,22,2.7,3.8,18,0.00,,OVC060,0.00,VWS V14.01,2013-05-13 19:51:00,
2013-05-13 15:52:00,53.4,11.0,29.29,NNE,22,2.7,3.8,18,0.00,,OVC060,0.00,VWS V14.01,2013-05-13 19:52:00,
2013-05-13 15:53:00,53.4,11.0,29.29,NNE,22,2.7,2.7,18,0.00,,OVC060,0.00,VWS V14.01,2013-05-13 19:53:00,
2013-05-13 15:54:00,53.4,11.0,29.29,NNE,22,2.7,2.7,18,0.00,,OVC060,0.00,VWS V14.01,2013-05-13 19:54:00,
2013-05-13 15:55:00,53.4,11.0,29.29,NNE,22,2.7,2.7,18,0.00,,OVC060,0.00,VWS V14.01,2013-05-13 19:55:00,
2013-05-13 15:56:00,53.6,11.1,29.29,SSW,202,6.0,6.0,18,0.00,,OVC060,0.00,VWS V14.01,2013-05-13 19:56:00,
2013-05-13 15:57:00,53.6,11.1,29.29,SSW,202,6.0,6.0,18,0.00,,OVC060,0.00,VWS V14.01,2013-05-13 19:57:00,
2013-05-13 15:58:00,53.6,11.1,29.29,SSW,202,6.0,6.0,18,0.00,,OVC060,0.00,VWS V14.01,2013-05-13 19:58:00,
2013-05-13 15:59:00,53.6,11.1,29.29,West,270,5.4,6.0,18,0.00,,OVC060,0.00,VWS V14.01,2013-05-13 19:59:00,
2013-05-13 16:00:00,53.2,10.9,29.29,WSW,248,7.2,7.2,18,0.00,,OVC060,0.00,VWS V14.01,2013-05-13 20:00:00,
2013-05-13 16:01:00,53.1,10.7,29.29,SW,225,3.8,3.8,18,0.00,,OVC060,0.00,VWS V14.01,2013-05-13 20:01:00,
2013-05-13 16:02:00,53.1,10.7,29.32,WNW,292,2.7,3.8,18,0.00,,OVC060,0.00,VWS V14.01,2013-05-13 20:02:00,
2013-05-13 16:03:00,53.1,10.7,29.32,WSW,248,2.9,2.9,18,0.00,,OVC060,0.00,VWS V14.01,2013-05-13 20:03:00,
2013-05-13 16:04:00,53.1,10.7,29.32,WSW,248,0.0,2.9,18,0.00,,OVC060,0.00,VWS V14.01,2013-05-13 20:04:00,
2013-05-13 16:05:00,53.1,10.7,29.32,WSW,248,4.0,4.0,18,0.00,,OVC060,0.00,VWS V14.01,2013-05-13 20:05:00,
2013-05-13 16:06:00,53.1,10.7,29.32,WSW,248,4.0,4.0,18,0.00,,OVC060,0.00,VWS V14.01,2013-05-13 20:06:00,
2013-05-13 16:07:00,53.1,10.7,29.32,WSW,248,4.0,4.0,18,0.00,,OVC060,0.00,VWS V14.01,2013-05-13 20:07:00,
2013-05-13 16:08:00,53.1,10.7,29.32,WSW,248,9.8,9.8,18,0.00,,OVC060,0.00,VWS V14.01,2013-05-13 20:08:00,
2013-05-13 16:09:00,53.1,10.7,29.32,SSE,158,2.7,9.8,18,0.00,,OVC060,0.00,VWS V14.01,2013-05-13 20:09:00,
2013-05-13 16:11:00,52.9,10.6,29.32,SSW,202,2.7,2.7,18,0.00,,OVC060,0.00,VWS V14.01,2013-05-13 20:11:00,
2013-05-13 16:12:00,52.9,10.6,29.32,WNW,292,2.7,2.7,18,0.00,,OVC060,0.00,VWS V14.01,2013-05-13 20:12:00,
2013-05-13 16:13:00,52.9,10.6,29.32,NW,315,2.0,2.7,18,0.00,,OVC060,0.00,VWS V14.01,2013-05-13 20:13:00,
2013-05-13 16:14:00,52.9,10.6,29.32,NNE,22,2.0,2.0,18,0.00,,OVC060,0.00,VWS V14.01,2013-05-13 20:14:00,
2013-05-13 16:15:00,52.9,10.6,29.32,West,270,2.5,2.5,18,0.00,,OVC060,0.00,VWS V14.01,2013-05-13 20:15:00,
2013-05-13 16:16:00,53.1,10.7,29.32,NE,45,1.3,1.3,18,0.00,,OVC060,0.00,VWS V14.01,2013-05-13 20:16:00,
2013-05-13 16:17:00,53.2,10.9,29.32,WSW,248,4.0,4.0,18,0.00,,OVC060,0.00,VWS V14.01,2013-05-13 20:17:00,
2013-05-13 16:18:00,53.2,10.9,29.32,WNW,292,3.6,4.0,18,0.00,,OVC060,0.00,VWS V14.01,2013-05-13 20:18:00,
2013-05-13 16:19:00,53.6,11.1,29.32,NE,45,0.9,3.6,18,0.00,,OVC060,0.00,VWS V14.01,2013-05-13 20:19:00,
2013-05-13 16:20:00,53.6,11.1,29.32,NE,45,0.9,0.9,18,0.00,,OVC060,0.00,VWS V14.01,2013-05-13 20:20:00,
2013-05-13 16:21:00,54.1,11.6,29.32,SSE,158,2.5,2.5,18,0.00,,OVC060,0.00,VWS V14.01,2013-05-13 20:21:00,
2013-05-13 16:22:00,54.1,11.6,29.32,SSE,158,2.5,2.5,18,0.00,,OVC060,0.00,VWS V14.01,2013-05-13 20:22:00,
2013-05-13 16:23:00,54.5,11.9,29.32,West,270,2.7,2.7,18,0.00,,OVC060,0.00,VWS V14.01,2013-05-13 20:23:00,
2013-05-13 16:24:00,54.9,12.2,29.32,WNW,292,2.5,2.7,18,0.00,,OVC060,0.00,VWS V14.01,2013-05-13 20:24:00,
2013-05-13 16:25:00,54.9,12.2,29.32,NE,45,2.7,2.7,18,0.00,,OVC060,0.00,VWS V14.01,2013-05-13 20:25:00,
2013-05-13 16:26:00,54.9,12.2,29.32,WSW,248,1.3,1.3,18,0.00,,OVC060,0.00,VWS V14.01,2013-05-13 20:26:00,
2013-05-13 16:27:00,54.9,12.2,29.32,South,180,0.0,1.3,18,0.00,,OVC060,0.00,VWS V14.01,2013-05-13 20:27:00,
2013-05-13 16:28:00,54.9,12.2,29.32,WNW,292,2.7,2.7,18,0.00,,OVC060,0.00,VWS V14.01,2013-05-13 20:28:00,
2013-05-13 16:29:00,54.9,12.2,29.32,ESE,112,0.0,2.7,18,0.00,,OVC060,0.00,VWS V14.01,2013-05-13 20:29:00,
2013-05-13 16:30:00,54.9,12.2,29.32,WSW,248,4.3,4.3,18,0.00,,OVC060,0.00,VWS V14.01,2013-05-13 20:30:00,
2013-05-13 16:31:00,54.9,12.2,29.32,West,270,2.9,2.9,18,0.00,,OVC060,0.00,VWS V14.01,2013-05-13 20:31:00,
2013-05-13 16:32:00,54.9,12.2,29.32,WSW,248,2.2,2.9,18,0.00,,OVC060,0.00,VWS V14.01,2013-05-13 20:32:00,
2013-05-13 16:34:00,54.9,12.2,29.32,WSW,248,2.2,2.2,18,0.00,,OVC060,0.00,VWS V14.01,2013-05-13 20:34:00,
2013-05-13 16:35:00,54.7,12.0,29.32,ESE,112,1.1,2.2,18,0.00,,OVC060,0.00,VWS V14.01,2013-05-13 20:35:00,
2013-05-13 16:36:00,54.9,12.2,29.32,West,270,2.0,3.1,18,0.00,,OVC060,0.00,VWS V14.01,2013-05-13 20:36:00,
2013-05-13 16:37:00,54.9,12.2,29.32,West,270,2.0,3.1,18,0.00,,OVC060,0.00,VWS V14.01,2013-05-13 20:37:00,
2013-05-13 16:38:00,54.9,12.2,29.32,NNW,338,4.0,4.0,18,0.00,,OVC060,0.00,VWS V14.01,2013-05-13 20:38:00,
2013-05-13 16:39:00,54.7,12.0,29.32,West,270,0.9,4.0,18,0.00,,OVC060,0.00,VWS V14.01,2013-05-13 20:39:00,
2013-05-13 16:40:00,54.5,11.9,29.32,WSW,248,1.1,1.1,18,0.00,,OVC060,0.00,VWS V14.01,2013-05-13 20:40:00,
2013-05-13 16:41:00,54.5,11.9,29.32,ENE,68,2.0,2.0,18,0.00,,OVC060,0.00,VWS V14.01,2013-05-13 20:41:00,
2013-05-13 16:42:00,54.5,11.9,29.32,WNW,292,2.9,2.9,18,0.00,,OVC060,0.00,VWS V14.01,2013-05-13 20:42:00,
2013-05-13 16:43:00,54.5,11.9,29.32,ESE,112,3.1,3.1,18,0.00,,OVC060,0.00,VWS V14.01,2013-05-13 20:43:00,
2013-05-13 16:44:00,54.3,11.7,29.32,NNE,22,3.1,3.1,18,0.00,,OVC060,0.00,VWS V14.01,2013-05-13 20:44:00,
2013-05-13 16:45:00,54.3,11.7,29.32,NNE,22,2.0,3.1,18,0.00,,OVC060,0.00,VWS V14.01,2013-05-13 20:45:00,
2013-05-13 16:46:00,54.3,11.7,29.32,WNW,292,2.7,2.7,18,0.00,,OVC060,0.00,VWS V14.01,2013-05-13 20:46:00,
2013-05-13 16:47:00,54.1,11.6,29.32,WNW,292,2.7,2.7,18,0.00,,OVC060,0.00,VWS V14.01,2013-05-13 20:47:00,
2013-05-13 16:48:00,54.1,11.6,29.32,WNW,292,2.7,2.7,18,0.00,,OVC060,0.00,VWS V14.01,2013-05-13 20:48:00,
2013-05-13 16:49:00,54.1,11.6,29.32,West,270,0.9,2.7,18,0.00,,OVC060,0.00,VWS V14.01,2013-05-13 20:49:00,
2013-05-13 16:50:00,54.1,11.6,29.32,West,270,1.6,1.6,18,0.00,,OVC060,0.00,VWS V14.01,2013-05-13 20:50:00,
2013-05-13 16:51:00,54.1,11.6,29.32,WNW,292,2.5,2.5,18,0.00,,OVC060,0.00,VWS V14.01,2013-05-13 20:51:00,
2013-05-13 16:52:00,54.1,11.6,29.32,WNW,292,2.5,2.5,18,0.00,,OVC060,0.00,VWS V14.01,2013-05-13 20:52:00,
2013-05-13 16:53:00,54.1,11.6,29.32,ENE,68,2.7,2.7,18,0.00,,OVC060,0.00,VWS V14.01,2013-05-13 20:53:00,
2013-05-13 16:55:00,54.1,11.6,29.32,WSW,248,2.0,2.7,18,0.00,,OVC060,0.00,VWS V14.01,2013-05-13 20:55:00,
2013-05-13 16:56:00,54.7,12.0,29.32,NE,45,2.0,2.0,18,0.00,,OVC060,0.00,VWS V14.01,2013-05-13 20:56:00,
2013-05-13 16:57:00,54.7,12.0,29.32,ESE,112,3.8,3.8,18,0.00,,OVC060,0.00,VWS V14.01,2013-05-13 20:57:00,
2013-05-13 16:58:00,54.7,12.0,29.32,ENE,68,3.8,3.8,18,0.00,,OVC060,0.00,VWS V14.01,2013-05-13 20:58:00,
2013-05-13 16:59:00,54.7,12.0,29.32,ENE,68,2.9,3.8,18,0.00,,OVC060,0.00,VWS V14.01,2013-05-13 20:59:00,
2013-05-13 17:00:00,54.5,11.9,29.32,ENE,68,2.9,2.9,18,0.00,,OVC060,0.00,VWS V14.01,2013-05-13 21:00:00,
2013-05-13 17:01:00,54.5,11.9,29.32,NNE,22,2.9,3.4,18,0.00,,OVC060,0.00,VWS V14.01,2013-05-13 21:01:00,
2013-05-13 17:02:00,54.5,11.9,29.29,NNE,22,2.9,3.4,18,0.00,,OVC060,0.00,VWS V14.01,2013-05-13 21:02:00,
2013-05-13 17:03:00,54.3,11.7,29.29,NE,45,2.5,2.9,18,0.00,,OVC060,0.00,VWS V14.01,2013-05-13 21:03:00,
2013-05-13 17:04:00,54.3,11.7,29.29,SSW,202,3.6,3.6,18,0.00,,OVC060,0.00,VWS V14.01,2013-05-13 21:04:00,
2013-05-13 17:05:00,54.3,11.7,29.29,NNE,22,2.7,3.6,18,0.00,,OVC060,0.00,VWS V14.01,2013-05-13 21:05:00,
2013-05-13 17:06:00,54.3,11.7,29.29,WNW,292,3.8,3.8,18,0.00,,OVC060,0.00,VWS V14.01,2013-05-13 21:06:00,
2013-05-13 17:07:00,54.3,11.7,29.29,WSW,248,8.5,8.5,18,0.00,,OVC060,0.00,VWS V14.01,2013-05-13 21:07:00,
2013-05-13 17:08:00,54.3,11.7,29.29,WSW,248,8.5,8.5,18,0.00,,OVC060,0.00,VWS V14.01,2013-05-13 21:08:00,
2013-05-13 17:09:00,54.0,11.4,29.29,WSW,248,7.8,8.5,18,0.00,,OVC060,0.00,VWS V14.01,2013-05-13 21:09:00,
2013-05-13 17:10:00,53.6,11.1,29.29,SW,225,1.6,7.8,18,0.00,,OVC060,0.00,VWS V14.01,2013-05-13 21:10:00,
2013-05-13 17:11:00,53.2,10.9,29.29,WSW,248,3.8,3.8,18,0.00,,OVC060,0.00,VWS V14.01,2013-05-13 21:11:00,
2013-05-13 17:12:00,53.2,10.9,29.29,WNW,292,1.1,3.8,18,0.00,,OVC060,0.00,VWS V14.01,2013-05-13 21:12:00,
2013-05-13 17:13:00,53.2,10.9,29.29,WNW,292,1.1,1.1,18,0.00,,OVC060,0.00,VWS V14.01,2013-05-13 21:13:00,
2013-05-13 17:14:00,53.2,10.9,29.29,WNW,292,1.1,1.1,18,0.00,,OVC060,0.00,VWS V14.01,2013-05-13 21:14:00,
2013-05-13 17:15:00,53.2,10.9,29.29,WNW,292,2.5,2.5,18,0.00,,OVC060,0.00,VWS V14.01,2013-05-13 21:15:00,
2013-05-13 17:16:00,52.9,10.6,29.29,WNW,292,2.5,2.5,18,0.00,,OVC060,0.00,VWS V14.01,2013-05-13 21:16:00,
2013-05-13 17:17:00,52.7,10.4,29.29,WSW,248,1.3,1.3,18,0.00,,OVC060,0.00,VWS V14.01,2013-05-13 21:17:00,
2013-05-13 17:18:00,52.7,10.4,29.32,NNE,22,2.5,2.5,18,0.00,,OVC060,0.00,VWS V14.01,2013-05-13 21:18:00,
2013-05-13 17:19:00,52.5,10.2,29.32,WSW,248,2.7,2.7,18,0.00,,OVC060,0.00,VWS V14.01,2013-05-13 21:19:00,
2013-05-13 17:20:00,52.5,10.2,29.32,WNW,292,4.0,4.0,18,0.00,,OVC060,0.00,VWS V14.01,2013-05-13 21:20:00,
2013-05-13 17:21:00,52.3,10.1,29.32,NNE,22,9.8,9.8,18,0.00,,OVC060,0.00,VWS V14.01,2013-05-13 21:21:00,
2013-05-13 17:22:00,52.3,10.1,29.32,WNW,292,3.1,9.8,18,0.00,,OVC060,0.00,VWS V14.01,2013-05-13 21:22:00,
2013-05-13 17:23:00,52.2,10.0,29.32,WNW,292,1.3,3.1,18,0.00,,OVC060,0.00,VWS V14.01,2013-05-13 21:23:00,
2013-05-13 17:24:00,52.2,10.0,29.32,WNW,292,1.3,1.3,18,0.00,,OVC060,0.00,VWS V14.01,2013-05-13 21:24:00,
2013-05-13 17:25:00,52.2,10.0,29.32,West,270,0.9,1.3,18,0.00,,OVC060,0.00,VWS V14.01,2013-05-13 21:25:00,
2013-05-13 17:26:00,52.2,10.0,29.32,WSW,248,4.9,4.9,18,0.00,,OVC060,0.00,VWS V14.01,2013-05-13 21:26:00,
2013-05-13 17:27:00,52.2,10.0,29.32,WSW,248,4.9,4.9,18,0.00,,OVC060,0.00,VWS V14.01,2013-05-13 21:27:00,
2013-05-13 17:28:00,52.2,10.0,29.32,WSW,248,4.9,4.9,18,0.00,,OVC060,0.00,VWS V14.01,2013-05-13 21:28:00,
2013-05-13 17:29:00,52.2,10.0,29.32,NE,45,0.0,4.9,18,0.00,,OVC060,0.00,VWS V14.01,2013-05-13 21:29:00,
2013-05-13 17:30:00,52.3,10.1,29.32,WNW,292,3.6,3.6,18,0.00,,OVC060,0.00,VWS V14.01,2013-05-13 21:30:00,
2013-05-13 17:31:00,52.2,10.0,29.32,North,0,0.0,0.0,18,0.00,,OVC060,0.00,VWS V14.01,2013-05-13 21:31:00,
2013-05-13 17:32:00,52.2,10.0,29.32,North,0,0.0,0.0,18,0.00,,OVC060,0.00,VWS V14.01,2013-05-13 21:32:00,
2013-05-13 17:33:00,52.2,10.0,29.32,ENE,68,0.0,0.0,18,0.00,,OVC060,0.00,VWS V14.01,2013-05-13 21:33:00,
2013-05-13 17:34:00,52.2,10.0,29.32,NW,315,1.3,1.3,18,0.00,,OVC060,0.00,VWS V14.01,2013-05-13 21:34:00,
2013-05-13 17:35:00,52.3,10.1,29.32,NW,315,0.9,1.3,18,0.00,,OVC060,0.00,VWS V14.01,2013-05-13 21:35:00,
2013-05-13 17:36:00,52.3,10.1,29.32,SSE,158,2.0,2.0,18,0.00,,OVC060,0.00,VWS V14.01,2013-05-13 21:36:00,
2013-05-13 17:37:00,52.3,10.1,29.32,West,270,1.1,2.0,18,0.00,,OVC060,0.00,VWS V14.01,2013-05-13 21:37:00,
2013-05-13 17:38:00,52.3,10.1,29.32,WNW,292,4.3,4.3,18,0.00,,OVC060,0.00,VWS V14.01,2013-05-13 21:38:00,
2013-05-13 17:39:00,52.3,10.1,29.32,West,270,3.6,4.3,18,0.00,,OVC060,0.00,VWS V14.01,2013-05-13 21:39:00,
2013-05-13 17:40:00,52.3,10.1,29.32,SW,225,1.1,3.6,18,0.00,,OVC060,0.00,VWS V14.01,2013-05-13 21:40:00,
2013-05-13 17:41:00,52.3,10.1,29.32,West,270,3.8,3.8,18,0.00,,OVC060,0.00,VWS V14.01,2013-05-13 21:41:00,
2013-05-13 17:42:00,52.3,10.1,29.32,West,270,3.8,3.8,18,0.00,,OVC060,0.00,VWS V14.01,2013-05-13 21:42:00,
2013-05-13 17:43:00,52.3,10.1,29.32,WSW,248,2.0,3.8,18,0.00,,OVC060,0.00,VWS V14.01,2013-05-13 21:43:00,
2013-05-13 17:44:00,52.3,10.1,29.32,NNW,338,2.7,2.7,18,0.00,,OVC060,0.00,VWS V14.01,2013-05-13 21:44:00,
2013-05-13 17:45:00,52.3,10.1,29.32,WNW,292,6.5,6.5,18,0.00,,OVC060,0.00,VWS V14.01,2013-05-13 21:45:00,
2013-05-13 17:46:00,52.3,10.1,29.32,West,270,1.3,3.8,18,0.00,,OVC060,0.00,VWS V14.01,2013-05-13 21:46:00,
2013-05-13 17:47:00,52.3,10.1,29.32,West,270,1.3,3.8,18,0.00,,OVC060,0.00,VWS V14.01,2013-05-13 21:47:00,
2013-05-13 17:48:00,52.3,10.1,29.32,West,270,0.9,1.3,18,0.00,,OVC060,0.00,VWS V14.01,2013-05-13 21:48:00,
2013-05-13 17:49:00,52.7,10.4,29.32,WNW,292,0.0,3.4,18,0.00,,OVC060,0.00,VWS V14.01,2013-05-13 21:49:00,
2013-05-13 17:50:00,52.7,10.4,29.32,WNW,292,0.0,0.0,18,0.00,,OVC060,0.00,VWS V14.01,2013-05-13 21:50:00,
2013-05-13 17:51:00,52.7,10.4,29.32,NNE,22,0.0,0.0,18,0.00,,OVC060,0.00,VWS V14.01,2013-05-13 21:51:00,
2013-05-13 17:52:00,52.7,10.4,29.32,SSW,202,2.0,2.0,18,0.00,,OVC060,0.00,VWS V14.01,2013-05-13 21:52:00,
2013-05-13 17:53:00,52.9,10.6,29.32,NNE,22,2.5,2.5,18,0.00,,OVC060,0.00,VWS V14.01,2013-05-13 21:53:00,
2013-05-13 17:54:00,52.9,10.6,29.32,NNE,22,2.5,2.5,18,0.00,,OVC060,0.00,VWS V14.01,2013-05-13 21:54:00,
2013-05-13 17:55:00,52.7,10.4,29.32,East,90,2.9,2.9,18,0.00,,OVC060,0.00,VWS V14.01,2013-05-13 21:55:00,
2013-05-13 17:56:00,52.7,10.4,29.32,NNW,338,2.7,2.7,18,0.00,,OVC060,0.00,VWS V14.01,2013-05-13 21:56:00,
2013-05-13 17:57:00,52.7,10.4,29.32,North,0,1.3,2.7,18,0.00,,OVC060,0.00,VWS V14.01,2013-05-13 21:57:00,
2013-05-13 17:58:00,52.3,10.1,29.32,North,0,2.5,2.5,18,0.00,,OVC060,0.00,VWS V14.01,2013-05-13 21:58:00,
2013-05-13 17:59:00,52.3,10.1,29.32,WSW,248,0.0,2.5,18,0.00,,OVC060,0.00,VWS V14.01,2013-05-13 21:59:00,
2013-05-13 18:00:00,52.2,10.0,29.32,WNW,292,0.9,0.9,18,0.00,,OVC060,0.00,VWS V14.01,2013-05-13 22:00:00,
2013-05-13 18:01:00,52.2,10.0,29.32,West,270,3.1,3.1,18,0.00,,OVC060,0.00,VWS V14.01,2013-05-13 22:01:00,
2013-05-13 18:02:00,52.2,10.0,29.32,West,270,3.1,3.1,18,0.00,,OVC060,0.00,VWS V14.01,2013-05-13 22:02:00,
2013-05-13 18:03:00,52.2,10.0,29.32,West,270,0.0,3.1,18,0.00,,OVC060,0.00,VWS V14.01,2013-05-13 22:03:00,
2013-05-13 18:04:00,52.2,10.0,29.32,West,270,0.0,0.0,18,0.00,,OVC060,0.00,VWS V14.01,2013-05-13 22:04:00,
2013-05-13 18:05:00,52.0,9.8,29.32,ESE,112,2.9,3.6,18,0.00,,OVC060,0.00,VWS V14.01,2013-05-13 22:05:00,
2013-05-13 18:06:00,51.8,9.7,29.32,NNW,338,2.2,2.2,18,0.00,,OVC060,0.00,VWS V14.01,2013-05-13 22:06:00,
2013-05-13 18:07:00,51.8,9.7,29.32,WNW,292,2.5,2.5,18,0.00,,OVC060,0.00,VWS V14.01,2013-05-13 22:07:00,
2013-05-13 18:08:00,51.8,9.7,29.32,WNW,292,2.5,2.5,18,0.00,,OVC060,0.00,VWS V14.01,2013-05-13 22:08:00,
2013-05-13 18:09:00,52.0,9.8,29.32,WNW,292,2.5,2.5,18,0.00,,OVC060,0.00,VWS V14.01,2013-05-13 22:09:00,
2013-05-13 18:10:00,51.8,9.7,29.32,WSW,248,0.0,2.5,18,0.00,,OVC060,0.00,VWS V14.01,2013-05-13 22:10:00,
2013-05-13 18:11:00,51.8,9.7,29.32,WSW,248,0.0,0.0,18,0.00,,OVC060,0.00,VWS V14.01,2013-05-13 22:11:00,
2013-05-13 18:12:00,51.8,9.7,29.32,WSW,248,3.4,3.4,18,0.00,,OVC060,0.00,VWS V14.01,2013-05-13 22:12:00,
2013-05-13 18:13:00,51.8,9.7,29.32,NW,315,2.7,3.4,18,0.00,,OVC060,0.00,VWS V14.01,2013-05-13 22:13:00,
2013-05-13 18:14:00,51.6,10.7,29.32,WNW,292,1.3,2.7,19,0.00,,OVC060,0.00,VWS V14.01,2013-05-13 22:14:00,
2013-05-13 18:15:00,51.6,10.7,29.32,WNW,292,1.3,1.3,19,0.00,,OVC060,0.00,VWS V14.01,2013-05-13 22:15:00,
2013-05-13 18:16:00,51.6,10.7,29.32,North,0,0.9,0.9,19,0.00,,OVC060,0.00,VWS V14.01,2013-05-13 22:16:00,
2013-05-13 18:17:00,51.6,10.7,29.32,North,0,0.9,0.9,19,0.00,,OVC060,0.00,VWS V14.01,2013-05-13 22:17:00,
2013-05-13 18:18:00,51.6,10.7,29.32,ESE,112,0.0,2.0,19,0.00,,OVC060,0.00,VWS V14.01,2013-05-13 22:18:00,
2013-05-13 18:19:00,51.6,10.7,29.32,WSW,248,1.6,1.6,19,0.00,,OVC060,0.00,VWS V14.01,2013-05-13 22:19:00,
2013-05-13 18:20:00,51.6,10.7,29.32,West,270,0.0,1.6,19,0.00,,OVC060,0.00,VWS V14.01,2013-05-13 22:20:00,
2013-05-13 18:21:00,51.6,10.7,29.32,West,270,0.0,0.0,19,0.00,,OVC060,0.00,VWS V14.01,2013-05-13 22:21:00,
2013-05-13 18:22:00,51.6,10.7,29.32,West,270,0.0,0.0,19,0.00,,OVC060,0.00,VWS V14.01,2013-05-13 22:22:00,
2013-05-13 18:23:00,51.4,10.6,29.32,West,270,2.9,2.9,19,0.00,,OVC060,0.00,VWS V14.01,2013-05-13 22:23:00,
2013-05-13 18:24:00,51.4,10.6,29.32,WNW,292,2.7,2.9,19,0.00,,OVC060,0.00,VWS V14.01,2013-05-13 22:24:00,
2013-05-13 18:25:00,51.3,10.4,29.32,WSW,248,2.7,2.7,19,0.00,,OVC060,0.00,VWS V14.01,2013-05-13 22:25:00,
2013-05-13 18:26:00,51.3,10.4,29.32,North,0,2.5,2.5,19,0.00,,OVC060,0.00,VWS V14.01,2013-05-13 22:26:00,
2013-05-13 18:27:00,51.3,10.4,29.32,North,0,2.5,2.5,19,0.00,,OVC060,0.00,VWS V14.01,2013-05-13 22:27:00,
2013-05-13 18:28:00,51.3,10.4,29.32,WSW,248,3.1,3.1,19,0.00,,OVC060,0.00,VWS V14.01,2013-05-13 22:28:00,
2013-05-13 18:29:00,51.3,10.4,29.32,WSW,248,3.8,3.8,19,0.00,,OVC060,0.00,VWS V14.01,2013-05-13 22:29:00,
2013-05-13 18:30:00,51.1,10.3,29.32,West,270,2.7,3.8,19,0.00,,OVC060,0.00,VWS V14.01,2013-05-13 22:30:00,
2013-05-13 18:31:00,51.1,10.3,29.32,WNW,292,1.1,2.2,19,0.00,,OVC060,0.00,VWS V14.01,2013-05-13 22:31:00,
2013-05-13 18:32:00,51.1,10.3,29.32,ENE,68,3.8,3.8,19,0.00,,OVC060,0.00,VWS V14.01,2013-05-13 22:32:00,
2013-05-13 18:33:00,50.9,10.1,29.32,WNW,292,2.5,3.8,19,0.00,,OVC060,0.00,VWS V14.01,2013-05-13 22:33:00,
2013-05-13 18:34:00,50.9,10.1,29.32,West,270,3.6,3.6,19,0.00,,OVC060,0.00,VWS V14.01,2013-05-13 22:34:00,
2013-05-13 18:35:00,50.9,10.1,29.32,WNW,292,3.6,3.6,19,0.00,,OVC060,0.00,VWS V14.01,2013-05-13 22:35:00,
2013-05-13 18:36:00,50.9,10.1,29.32,WNW,292,3.6,3.6,19,0.00,,OVC060,0.00,VWS V14.01,2013-05-13 22:36:00,
2013-05-13 18:37:00,50.9,10.1,29.32,WSW,248,2.5,3.6,19,0.00,,OVC060,0.00,VWS V14.01,2013-05-13 22:37:00,
2013-05-13 18:38:00,50.9,10.1,29.32,NNE,22,2.5,2.5,19,0.00,,OVC060,0.00,VWS V14.01,2013-05-13 22:38:00,
2013-05-13 18:39:00,50.7,10.0,29.32,SSE,158,0.0,2.5,19,0.00,,OVC060,0.00,VWS V14.01,2013-05-13 22:39:00,
2013-05-13 18:40:00,50.7,10.0,29.32,NNW,338,2.9,2.9,19,0.00,,OVC060,0.00,VWS V14.01,2013-05-13 22:40:00,
2013-05-13 18:41:00,50.7,10.0,29.32,ENE,68,2.2,2.2,19,0.00,,OVC060,0.00,VWS V14.01,2013-05-13 22:41:00,
2013-05-13 18:42:00,50.7,10.0,29.32,ENE,68,2.2,2.2,19,0.00,,OVC060,0.00,VWS V14.01,2013-05-13 22:42:00,
2013-05-13 18:43:00,50.7,10.0,29.32,ENE,68,2.2,2.2,19,0.00,,OVC060,0.00,VWS V14.01,2013-05-13 22:43:00,
2013-05-13 18:44:00,50.5,9.8,29.32,WSW,248,0.9,2.2,19,0.00,,OVC060,0.00,VWS V14.01,2013-05-13 22:44:00,
2013-05-13 18:45:00,50.5,9.8,29.32,WNW,292,1.6,2.0,19,0.00,,OVC060,0.00,VWS V14.01,2013-05-13 22:45:00,
2013-05-13 18:46:00,50.5,9.8,29.32,NW,315,1.1,1.1,19,0.00,,OVC060,0.00,VWS V14.01,2013-05-13 22:46:00,
2013-05-13 18:47:00,50.5,9.8,29.32,NW,315,1.1,1.1,19,0.00,,OVC060,0.00,VWS V14.01,2013-05-13 22:47:00,
2013-05-13 18:48:00,50.5,9.8,29.32,WNW,292,1.1,1.1,19,0.00,,OVC060,0.00,VWS V14.01,2013-05-13 22:48:00,
2013-05-13 18:49:00,50.5,9.8,29.32,WNW,292,1.1,1.1,19,0.00,,OVC060,0.00,VWS V14.01,2013-05-13 22:49:00,
2013-05-13 18:50:00,50.5,9.8,29.32,WNW,292,1.1,1.1,19,0.00,,OVC060,0.00,VWS V14.01,2013-05-13 22:50:00,
2013-05-13 18:51:00,50.5,9.8,29.32,North,0,2.7,2.7,19,0.00,,OVC060,0.00,VWS V14.01,2013-05-13 22:51:00,
2013-05-13 18:52:00,50.5,9.8,29.32,West,270,1.6,2.7,19,0.00,,OVC060,0.00,VWS V14.01,2013-05-13 22:52:00,
2013-05-13 18:53:00,50.4,9.7,29.32,NNW,338,1.6,1.6,19,0.00,,OVC060,0.00,VWS V14.01,2013-05-13 22:53:00,
2013-05-13 18:54:00,50.4,9.7,29.32,NNW,338,2.9,2.9,19,0.00,,OVC060,0.00,VWS V14.01,2013-05-13 22:54:00,
2013-05-13 18:55:00,50.4,9.7,29.32,NNW,338,2.9,2.9,19,0.00,,OVC060,0.00,VWS V14.01,2013-05-13 22:55:00,
2013-05-13 18:56:00,50.2,9.5,29.32,ESE,112,1.1,1.1,19,0.00,,OVC060,0.00,VWS V14.01,2013-05-13 22:56:00,
2013-05-13 18:57:00,50.2,9.5,29.32,ESE,112,1.1,1.1,19,0.00,,OVC060,0.00,VWS V14.01,2013-05-13 22:57:00,
2013-05-13 18:58:00,50.2,9.5,29.32,West,270,3.6,3.6,19,0.00,,OVC060,0.00,VWS V14.01,2013-05-13 22:58:00,
2013-05-13 18:59:00,50.2,9.5,29.32,WSW,248,2.5,3.6,19,0.00,,OVC060,0.00,VWS V14.01,2013-05-13 22:59:00,
2013-05-13 19:00:00,50.2,11.8,29.32,WNW,292,1.6,2.5,21,0.00,,OVC060,0.00,VWS V14.01,2013-05-13 23:00:00,
2013-05-13 19:01:00,50.2,11.8,29.32,WNW,292,2.0,2.0,21,0.00,,OVC060,0.00,VWS V14.01,2013-05-13 23:01:00,
2013-05-13 19:02:00,50.2,11.8,29.32,WNW,292,2.0,2.0,21,0.00,,OVC060,0.00,VWS V14.01,2013-05-13 23:02:00,
2013-05-13 19:03:00,50.2,11.8,29.32,WNW,292,2.0,2.0,21,0.00,,OVC060,0.00,VWS V14.01,2013-05-13 23:03:00,
2013-05-13 19:04:00,50.2,11.8,29.32,West,270,1.6,2.0,21,0.00,,OVC060,0.00,VWS V14.01,2013-05-13 23:04:00,
2013-05-13 19:05:00,50.0,11.6,29.32,WNW,292,2.7,2.7,21,0.00,,OVC060,0.00,VWS V14.01,2013-05-13 23:05:00,
2013-05-13 19:06:00,50.0,11.6,29.32,WNW,292,0.9,0.9,21,0.00,,OVC060,0.00,VWS V14.01,2013-05-13 23:06:00,
2013-05-13 19:07:00,50.0,11.6,29.32,WNW,292,0.0,0.9,21,0.00,,OVC060,0.00,VWS V14.01,2013-05-13 23:07:00,
2013-05-13 19:08:00,50.0,11.6,29.32,WNW,292,0.0,0.0,21,0.00,,OVC060,0.00,VWS V14.01,2013-05-13 23:08:00,
2013-05-13 19:09:00,50.0,11.6,29.32,NNW,338,0.0,0.0,21,0.00,,OVC060,0.00,VWS V14.01,2013-05-13 23:09:00,
2013-05-13 19:10:00,50.0,11.6,29.32,NNE,22,1.3,1.3,21,0.00,,OVC060,0.00,VWS V14.01,2013-05-13 23:10:00,
2013-05-13 19:11:00,50.0,11.6,29.32,SSE,158,0.0,1.1,21,0.00,,OVC060,0.00,VWS V14.01,2013-05-13 23:11:00,
2013-05-13 19:12:00,50.0,11.6,29.32,SSE,158,0.0,1.1,21,0.00,,OVC060,0.00,VWS V14.01,2013-05-13 23:12:00,
2013-05-13 19:13:00,50.0,11.6,29.32,SW,225,3.4,3.4,21,0.00,,OVC060,0.00,VWS V14.01,2013-05-13 23:13:00,
2013-05-13 19:14:00,49.8,11.5,29.32,WNW,292,2.5,3.4,21,0.00,,OVC060,0.00,VWS V14.01,2013-05-13 23:14:00,
2013-05-13 19:15:00,49.8,11.5,29.32,WNW,292,2.5,2.5,21,0.00,,OVC060,0.00,VWS V14.01,2013-05-13 23:15:00,
2013-05-13 19:16:00,49.8,11.5,29.32,WNW,292,2.5,2.5,21,0.00,,OVC060,0.00,VWS V14.01,2013-05-13 23:16:00,
2013-05-13 19:17:00,49.8,11.5,29.32,WNW,292,2.5,2.5,21,0.00,,OVC060,0.00,VWS V14.01,2013-05-13 23:17:00,
2013-05-13 19:18:00,49.8,11.5,29.32,SSE,158,1.1,2.5,21,0.00,,OVC060,0.00,VWS V14.01,2013-05-13 23:18:00,
2013-05-13 19:19:00,49.6,11.3,29.32,West,270,3.4,3.4,21,0.00,,OVC060,0.00,VWS V14.01,2013-05-13 23:19:00,
2013-05-13 19:20:00,49.6,11.3,29.32,ENE,68,1.3,3.4,21,0.00,,OVC060,0.00,VWS V14.01,2013-05-13 23:20:00,
2013-05-13 19:21:00,49.6,11.3,29.32,NNW,338,2.2,2.2,21,0.00,,OVC060,0.00,VWS V14.01,2013-05-13 23:21:00,
2013-05-13 19:22:00,49.6,11.3,29.32,WNW,292,2.0,2.2,21,0.00,,OVC060,0.00,VWS V14.01,2013-05-13 23:22:00,
2013-05-13 19:23:00,49.5,11.2,29.32,West,270,2.9,2.9,21,0.00,,OVC060,0.00,VWS V14.01,2013-05-13 23:23:00,
2013-05-13 19:24:00,49.5,11.2,29.32,West,270,2.5,2.9,21,0.00,,OVC060,0.00,VWS V14.01,2013-05-13 23:24:00,
2013-05-13 19:25:00,49.5,11.2,29.32,NNE,22,0.0,2.5,21,0.00,,OVC060,0.00,VWS V14.01,2013-05-13 23:25:00,
2013-05-13 19:26:00,49.3,11.0,29.32,East,90,1.1,2.7,21,0.00,,OVC060,0.00,VWS V14.01,2013-05-13 23:26:00,
2013-05-13 19:27:00,49.3,11.0,29.32,NNW,338,1.6,2.7,21,0.00,,OVC060,0.00,VWS V14.01,2013-05-13 23:27:00,
2013-05-13 19:28:00,49.3,11.0,29.32,WNW,292,2.0,2.0,21,0.00,,OVC060,0.00,VWS V14.01,2013-05-13 23:28:00,
2013-05-13 19:29:00,49.3,11.0,29.32,WNW,292,2.0,2.0,21,0.00,,OVC060,0.00,VWS V14.01,2013-05-13 23:29:00,
2013-05-13 19:30:00,49.1,10.9,29.32,WNW,292,2.0,2.0,21,0.00,,OVC060,0.00,VWS V14.01,2013-05-13 23:30:00,
2013-05-13 19:31:00,49.1,10.9,29.32,NNE,22,0.0,0.0,21,0.00,,OVC060,0.00,VWS V14.01,2013-05-13 23:31:00,
2013-05-13 19:32:00,49.1,10.9,29.32,NE,45,0.0,0.0,21,0.00,,OVC060,0.00,VWS V14.01,2013-05-13 23:32:00,
2013-05-13 19:33:00,49.1,10.9,29.32,WSW,248,2.7,2.7,21,0.00,,OVC060,0.00,VWS V14.01,2013-05-13 23:33:00,
2013-05-13 19:34:00,49.1,10.9,29.32,NE,45,1.3,2.7,21,0.00,,OVC060,0.00,VWS V14.01,2013-05-13 23:34:00,
2013-05-13 19:35:00,48.9,10.7,29.32,WSW,248,1.3,1.3,21,0.00,,OVC060,0.00,VWS V14.01,2013-05-13 23:35:00,
2013-05-13 19:36:00,48.9,10.7,29.32,WSW,248,1.3,1.3,21,0.00,,OVC060,0.00,VWS V14.01,2013-05-13 23:36:00,
2013-05-13 19:37:00,48.9,10.7,29.32,WSW,248,1.3,1.3,21,0.00,,OVC060,0.00,VWS V14.01,2013-05-13 23:37:00,
2013-05-13 19:38:00,48.9,10.7,29.32,WNW,292,2.5,2.5,21,0.00,,OVC060,0.00,VWS V14.01,2013-05-13 23:38:00,
2013-05-13 19:39:00,48.9,10.7,29.32,West,270,2.0,2.5,21,0.00,,OVC060,0.00,VWS V14.01,2013-05-13 23:39:00,
2013-05-13 19:40:00,48.9,10.7,29.32,WSW,248,2.9,2.9,21,0.00,,OVC060,0.00,VWS V14.01,2013-05-13 23:40:00,
2013-05-13 19:41:00,48.9,10.7,29.32,NW,315,0.0,0.0,21,0.00,,OVC060,0.00,VWS V14.01,2013-05-13 23:41:00,
2013-05-13 19:42:00,48.7,10.6,29.32,NW,315,0.0,0.0,21,0.00,,OVC060,0.00,VWS V14.01,2013-05-13 23:42:00,
2013-05-13 19:43:00,48.7,10.6,29.32,West,270,1.1,1.1,21,0.00,,OVC060,0.00,VWS V14.01,2013-05-13 23:43:00,
2013-05-13 19:44:00,48.7,10.6,29.32,NW,315,1.1,1.1,21,0.00,,OVC060,0.00,VWS V14.01,2013-05-13 23:44:00,
2013-05-13 19:45:00,48.7,10.6,29.32,NNW,338,2.0,2.0,21,0.00,,OVC060,0.00,VWS V14.01,2013-05-13 23:45:00,
2013-05-13 19:46:00,48.7,10.6,29.32,WNW,292,0.0,0.0,21,0.00,,OVC060,0.00,VWS V14.01,2013-05-13 23:46:00,
2013-05-13 19:47:00,48.7,10.6,29.32,West,270,1.1,1.1,21,0.00,,OVC060,0.00,VWS V14.01,2013-05-13 23:47:00,
2013-05-13 19:48:00,48.7,10.6,29.32,WNW,292,2.2,2.2,21,0.00,,OVC060,0.00,VWS V14.01,2013-05-13 23:48:00,
2013-05-13 19:49:00,48.7,10.6,29.32,West,270,2.9,2.9,21,0.00,,OVC060,0.00,VWS V14.01,2013-05-13 23:49:00,
2013-05-13 19:50:00,48.7,10.6,29.32,NNW,338,0.0,2.9,21,0.00,,OVC060,0.00,VWS V14.01,2013-05-13 23:50:00,
2013-05-13 19:51:00,48.6,10.4,29.32,NNE,22,0.0,0.0,21,0.00,,OVC060,0.00,VWS V14.01,2013-05-13 23:51:00,
2013-05-13 19:52:00,48.6,10.4,29.32,NNE,22,0.0,0.0,21,0.00,,OVC060,0.00,VWS V14.01,2013-05-13 23:52:00,
2013-05-13 19:53:00,48.6,10.4,29.32,NNE,22,0.0,0.0,21,0.00,,OVC060,0.00,VWS V14.01,2013-05-13 23:53:00,
2013-05-13 19:54:00,48.6,10.4,29.32,WSW,248,2.9,2.9,21,0.00,,OVC060,0.00,VWS V14.01,2013-05-13 23:54:00,
2013-05-13 19:55:00,48.4,10.3,29.32,West,270,0.0,2.9,21,0.00,,OVC060,0.00,VWS V14.01,2013-05-13 23:55:00,
2013-05-13 19:56:00,48.2,10.1,29.32,NNE,22,0.0,0.0,21,0.00,,OVC060,0.00,VWS V14.01,2013-05-13 23:56:00,
2013-05-13 19:57:00,48.2,10.1,29.32,NNE,22,0.0,0.0,21,0.00,,OVC060,0.00,VWS V14.01,2013-05-13 23:57:00,
2013-05-13 19:58:00,48.2,10.1,29.32,WNW,292,0.0,0.0,21,0.00,,OVC060,0.00,VWS V14.01,2013-05-13 23:58:00,
2013-05-13 19:59:00,48.2,10.1,29.32,WNW,292,1.6,1.6,21,0.00,,OVC060,0.00,VWS V14.01,2013-05-13 23:59:00,
2013-05-13 20:00:00,48.0,11.0,29.32,West,270,0.0,1.6,22,0.00,,OVC060,0.00,VWS V14.01,2013-05-14 00:00:00,
2013-05-13 20:01:00,48.0,13.0,29.32,West,270,0.0,0.0,24,0.00,,OVC060,0.00,VWS V14.01,2013-05-14 00:01:00,
2013-05-13 20:02:00,48.0,13.0,29.32,WNW,292,2.0,2.0,24,0.00,,OVC060,0.00,VWS V14.01,2013-05-14 00:02:00,
2013-05-13 20:03:00,48.0,13.0,29.32,ENE,68,1.6,2.0,24,0.00,,OVC060,0.00,VWS V14.01,2013-05-14 00:03:00,
2013-05-13 20:04:00,47.8,12.8,29.32,NW,315,0.0,1.6,24,0.00,,OVC060,0.00,VWS V14.01,2013-05-14 00:04:00,
2013-05-13 20:05:00,47.8,12.8,29.32,WSW,248,0.0,0.0,24,0.00,,OVC060,0.00,VWS V14.01,2013-05-14 00:05:00,
2013-05-13 20:06:00,47.7,12.7,29.32,WNW,292,0.0,2.0,24,0.00,,OVC060,0.00,VWS V14.01,2013-05-14 00:06:00,
2013-05-13 20:07:00,47.7,12.7,29.32,WNW,292,0.0,2.0,24,0.00,,OVC060,0.00,VWS V14.01,2013-05-14 00:07:00,
2013-05-13 20:08:00,47.7,12.7,29.32,WNW,292,0.0,0.0,24,0.00,,OVC060,0.00,VWS V14.01,2013-05-14 00:08:00,
2013-05-13 20:09:00,47.7,12.7,29.32,NNW,338,0.0,0.0,24,0.00,,OVC060,0.00,VWS V14.01,2013-05-14 00:09:00,
2013-05-13 20:10:00,47.7,12.7,29.32,NNW,338,0.0,0.0,24,0.00,,OVC060,0.00,VWS V14.01,2013-05-14 00:10:00,
2013-05-13 20:11:00,47.5,12.5,29.32,NNW,338,0.0,0.0,24,0.00,,OVC060,0.00,VWS V14.01,2013-05-14 00:11:00,
2013-05-13 20:12:00,47.3,12.4,29.32,West,270,0.0,0.0,24,0.00,,OVC060,0.00,VWS V14.01,2013-05-14 00:12:00,
2013-05-13 20:13:00,47.3,12.4,29.32,WNW,292,1.6,1.6,24,0.00,,OVC060,0.00,VWS V14.01,2013-05-14 00:13:00,
2013-05-13 20:14:00,47.3,12.4,29.32,WNW,292,0.0,1.6,24,0.00,,OVC060,0.00,VWS V14.01,2013-05-14 00:14:00,
2013-05-13 20:15:00,47.3,12.4,29.32,WNW,292,0.0,0.0,24,0.00,,OVC060,0.00,VWS V14.01,2013-05-14 00:15:00,
2013-05-13 20:16:00,47.1,12.2,29.32,WNW,292,0.0,0.0,24,0.00,,OVC060,0.00,VWS V14.01,2013-05-14 00:16:00,
2013-05-13 20:17:00,47.1,12.2,29.32,WNW,292,0.0,0.0,24,0.00,,OVC060,0.00,VWS V14.01,2013-05-14 00:17:00,
2013-05-13 20:18:00,46.9,12.1,29.32,WNW,292,0.0,0.0,24,0.00,,OVC060,0.00,VWS V14.01,2013-05-14 00:18:00,
2013-05-13 20:19:00,46.9,12.1,29.32,WNW,292,0.0,0.0,24,0.00,,OVC060,0.00,VWS V14.01,2013-05-14 00:19:00,
2013-05-13 20:20:00,46.9,12.1,29.32,West,270,0.0,0.0,24,0.00,,OVC060,0.00,VWS V14.01,2013-05-14 00:20:00,
2013-05-13 20:21:00,46.8,14.6,29.32,WNW,292,0.0,0.0,27,0.00,,OVC060,0.00,VWS V14.01,2013-05-14 00:21:00,
2013-05-13 20:22:00,46.8,14.6,29.32,WNW,292,0.0,0.0,27,0.00,,OVC060,0.00,VWS V14.01,2013-05-14 00:22:00,
2013-05-13 20:23:00,46.6,14.4,29.32,WNW,292,2.5,2.5,27,0.00,,OVC060,0.00,VWS V14.01,2013-05-14 00:23:00,
2013-05-13 20:24:00,46.6,14.4,29.32,WNW,292,2.5,2.5,27,0.00,,OVC060,0.00,VWS V14.01,2013-05-14 00:24:00,
2013-05-13 20:25:00,46.6,14.4,29.32,WNW,292,0.0,2.5,27,0.00,,OVC060,0.00,VWS V14.01,2013-05-14 00:25:00,
2013-05-13 20:26:00,46.4,14.2,29.32,WNW,292,0.0,0.0,27,0.00,,OVC060,0.00,VWS V14.01,2013-05-14 00:26:00,
2013-05-13 20:27:00,46.4,14.2,29.32,WNW,292,0.0,0.0,27,0.00,,OVC060,0.00,VWS V14.01,2013-05-14 00:27:00,
2013-05-13 20:28:00,46.4,14.2,29.32,WNW,292,0.0,0.0,27,0.00,,OVC060,0.00,VWS V14.01,2013-05-14 00:28:00,
2013-05-13 20:29:00,46.4,14.2,29.32,NW,315,0.0,0.0,27,0.00,,OVC060,0.00,VWS V14.01,2013-05-14 00:29:00,
2013-05-13 20:30:00,46.2,14.1,29.32,NW,315,0.0,0.0,27,0.00,,OVC060,0.00,VWS V14.01,2013-05-14 00:30:00,
2013-05-13 20:31:00,46.0,13.9,29.32,WNW,292,0.0,0.0,27,0.00,,OVC060,0.00,VWS V14.01,2013-05-14 00:31:00,
2013-05-13 20:32:00,46.0,13.9,29.35,WNW,292,0.0,0.0,27,0.00,,OVC060,0.00,VWS V14.01,2013-05-14 00:32:00,
2013-05-13 20:33:00,46.0,13.9,29.35,WNW,292,0.0,0.0,27,0.00,,OVC060,0.00,VWS V14.01,2013-05-14 00:33:00,
2013-05-13 20:34:00,45.9,13.8,29.35,WNW,292,0.0,0.0,27,0.00,,OVC060,0.00,VWS V14.01,2013-05-14 00:34:00,
2013-05-13 20:35:00,45.9,14.6,29.35,WNW,292,0.0,0.0,28,0.00,,OVC060,0.00,VWS V14.01,2013-05-14 00:35:00,
2013-05-13 20:36:00,45.7,14.5,29.35,WNW,292,0.0,0.0,28,0.00,,OVC060,0.00,VWS V14.01,2013-05-14 00:36:00,
2013-05-13 20:37:00,45.7,14.5,29.35,WNW,292,0.0,0.0,28,0.00,,OVC060,0.00,VWS V14.01,2013-05-14 00:37:00,
2013-05-13 20:38:00,45.7,14.5,29.35,WNW,292,0.0,0.0,28,0.00,,OVC060,0.00,VWS V14.01,2013-05-14 00:38:00,
2013-05-13 20:39:00,45.5,14.3,29.35,WNW,292,0.0,0.0,28,0.00,,OVC060,0.00,VWS V14.01,2013-05-14 00:39:00,
2013-05-13 20:40:00,45.5,14.3,29.35,WNW,292,0.0,0.0,28,0.00,,OVC060,0.00,VWS V14.01,2013-05-14 00:40:00,
2013-05-13 20:41:00,45.5,14.3,29.35,WNW,292,0.0,0.0,28,0.00,,OVC060,0.00,VWS V14.01,2013-05-14 00:41:00,
2013-05-13 20:42:00,45.5,14.3,29.35,WNW,292,0.0,0.0,28,0.00,,OVC060,0.00,VWS V14.01,2013-05-14 00:42:00,
2013-05-13 20:43:00,45.5,14.3,29.35,WSW,248,0.0,0.0,28,0.00,,OVC060,0.00,VWS V14.01,2013-05-14 00:43:00,
2013-05-13 20:44:00,45.3,14.9,29.35,WSW,248,0.0,0.0,29,0.00,,OVC060,0.00,VWS V14.01,2013-05-14 00:44:00,
2013-05-13 20:45:00,45.3,14.9,29.35,WSW,248,0.0,0.0,29,0.00,,OVC060,0.00,VWS V14.01,2013-05-14 00:45:00,
2013-05-13 20:46:00,45.3,14.9,29.35,WSW,248,0.0,0.0,29,0.00,,OVC060,0.00,VWS V14.01,2013-05-14 00:46:00,
2013-05-13 20:47:00,45.3,14.9,29.35,WSW,248,0.0,0.0,29,0.00,,OVC060,0.00,VWS V14.01,2013-05-14 00:47:00,
2013-05-13 20:48:00,45.1,16.3,29.35,WSW,248,0.0,0.0,31,0.00,,OVC060,0.00,VWS V14.01,2013-05-14 00:48:00,
2013-05-13 20:49:00,45.1,17.1,29.35,WSW,248,0.0,0.0,32,0.00,,OVC060,0.00,VWS V14.01,2013-05-14 00:49:00,
2013-05-13 20:50:00,45.1,17.1,29.35,WSW,248,0.0,0.0,32,0.00,,OVC060,0.00,VWS V14.01,2013-05-14 00:50:00,
2013-05-13 20:51:00,45.0,16.9,29.35,WSW,248,0.0,0.0,32,0.00,,OVC060,0.00,VWS V14.01,2013-05-14 00:51:00,
2013-05-13 20:52:00,45.0,16.9,29.35,WSW,248,0.0,0.0,32,0.00,,OVC060,0.00,VWS V14.01,2013-05-14 00:52:00,
2013-05-13 20:53:00,44.8,17.5,29.35,WSW,248,0.0,0.0,33,0.00,,OVC060,0.00,VWS V14.01,2013-05-14 00:53:00,
2013-05-13 20:54:00,44.8,17.5,29.35,WSW,248,0.0,0.0,33,0.00,,OVC060,0.00,VWS V14.01,2013-05-14 00:54:00,
2013-05-13 20:55:00,44.8,18.1,29.35,WSW,248,0.0,0.0,34,0.00,,OVC060,0.00,VWS V14.01,2013-05-14 00:55:00,
2013-05-13 20:56:00,44.8,18.1,29.35,WSW,248,0.0,0.0,34,0.00,,OVC060,0.00,VWS V14.01,2013-05-14 00:56:00,
2013-05-13 20:57:00,44.6,18.7,29.35,WSW,248,0.0,0.0,35,0.00,,OVC060,0.00,VWS V14.01,2013-05-14 00:57:00,
2013-05-13 20:58:00,44.4,19.1,29.35,WSW,248,0.0,0.0,36,0.00,,OVC060,0.00,VWS V14.01,2013-05-14 00:58:00,
2013-05-13 20:59:00,44.4,19.1,29.35,WSW,248,0.0,0.0,36,0.00,,OVC060,0.00,VWS V14.01,2013-05-14 00:59:00,
2013-05-13 21:00:00,44.2,19.0,29.35,WSW,248,0.0,0.0,36,0.00,,OVC060,0.00,VWS V14.01,2013-05-14 01:00:00,
2013-05-13 21:01:00,44.2,20.3,29.35,WSW,248,0.0,0.0,38,0.00,,OVC060,0.00,VWS V14.01,2013-05-14 01:01:00,
2013-05-13 21:02:00,44.2,20.3,29.35,WSW,248,0.0,0.0,38,0.00,,OVC060,0.00,VWS V14.01,2013-05-14 01:02:00,
2013-05-13 21:03:00,44.2,20.3,29.35,WSW,248,0.0,0.0,38,0.00,,OVC060,0.00,VWS V14.01,2013-05-14 01:03:00,
2013-05-13 21:04:00,44.1,20.1,29.35,WSW,248,0.0,0.0,38,0.00,,OVC060,0.00,VWS V14.01,2013-05-14 01:04:00,
2013-05-13 21:06:00,44.1,20.1,29.35,WSW,248,0.0,0.0,38,0.00,,OVC060,0.00,VWS V14.01,2013-05-14 01:06:00,
2013-05-13 21:07:00,44.1,20.1,29.35,WSW,248,0.0,0.0,38,0.00,,OVC060,0.00,VWS V14.01,2013-05-14 01:07:00,
2013-05-13 21:08:00,44.1,20.1,29.35,WSW,248,0.0,0.0,38,0.00,,OVC060,0.00,VWS V14.01,2013-05-14 01:08:00,
2013-05-13 21:09:00,43.9,19.9,29.35,WSW,248,0.0,0.0,38,0.00,,OVC060,0.00,VWS V14.01,2013-05-14 01:09:00,
2013-05-13 21:10:00,43.9,19.9,29.35,WSW,248,0.0,0.0,38,0.00,,OVC060,0.00,VWS V14.01,2013-05-14 01:10:00,
2013-05-13 21:11:00,43.7,20.4,29.35,WSW,248,0.0,0.0,39,0.00,,OVC060,0.00,VWS V14.01,2013-05-14 01:11:00,
2013-05-13 21:12:00,43.7,20.4,29.35,WSW,248,0.0,0.0,39,0.00,,OVC060,0.00,VWS V14.01,2013-05-14 01:12:00,
2013-05-13 21:13:00,43.7,20.4,29.35,WSW,248,0.0,0.0,39,0.00,,OVC060,0.00,VWS V14.01,2013-05-14 01:13:00,
2013-05-13 21:14:00,43.7,20.4,29.35,WSW,248,0.0,0.0,39,0.00,,OVC060,0.00,VWS V14.01,2013-05-14 01:14:00,
2013-05-13 21:15:00,43.7,20.4,29.35,WSW,248,0.0,0.0,39,0.00,,OVC060,0.00,VWS V14.01,2013-05-14 01:15:00,
2013-05-13 21:16:00,43.7,20.4,29.35,WSW,248,0.0,0.0,39,0.00,,OVC060,0.00,VWS V14.01,2013-05-14 01:16:00,
2013-05-13 21:17:00,43.7,20.4,29.35,WSW,248,0.0,0.0,39,0.00,,OVC060,0.00,VWS V14.01,2013-05-14 01:17:00,
2013-05-13 21:18:00,43.7,20.4,29.38,WSW,248,0.0,0.0,39,0.00,,OVC060,0.00,VWS V14.01,2013-05-14 01:18:00,
2013-05-13 21:19:00,43.7,21.0,29.38,WSW,248,0.0,0.0,40,0.00,,OVC060,0.00,VWS V14.01,2013-05-14 01:19:00,
2013-05-13 21:20:00,43.7,21.0,29.38,WSW,248,0.0,0.0,40,0.00,,OVC060,0.00,VWS V14.01,2013-05-14 01:20:00,
2013-05-13 21:21:00,43.5,20.8,29.38,WSW,248,0.0,0.0,40,0.00,,OVC060,0.00,VWS V14.01,2013-05-14 01:21:00,
2013-05-13 21:22:00,43.5,20.8,29.38,WSW,248,0.0,0.0,40,0.00,,OVC060,0.00,VWS V14.01,2013-05-14 01:22:00,
2013-05-13 21:23:00,43.5,20.8,29.38,WSW,248,0.0,0.0,40,0.00,,OVC060,0.00,VWS V14.01,2013-05-14 01:23:00,
2013-05-13 21:24:00,43.5,20.8,29.38,WSW,248,0.0,0.0,40,0.00,,OVC060,0.00,VWS V14.01,2013-05-14 01:24:00,
2013-05-13 21:25:00,43.5,21.4,29.38,WSW,248,0.0,0.0,41,0.00,,OVC060,0.00,VWS V14.01,2013-05-14 01:25:00,
2013-05-13 21:26:00,43.5,22.0,29.38,SW,225,0.0,0.0,42,0.00,,OVC060,0.00,VWS V14.01,2013-05-14 01:26:00,
2013-05-13 21:27:00,43.5,22.0,29.38,SW,225,0.0,0.0,42,0.00,,OVC060,0.00,VWS V14.01,2013-05-14 01:27:00,
2013-05-13 21:28:00,43.5,22.5,29.38,SSW,202,0.0,0.0,43,0.00,,OVC060,0.00,VWS V14.01,2013-05-14 01:28:00,
2013-05-13 21:29:00,43.5,22.5,29.38,SSW,202,0.0,0.0,43,0.00,,OVC060,0.00,VWS V14.01,2013-05-14 01:29:00,
2013-05-13 21:30:00,43.5,22.5,29.38,SSW,202,0.0,0.0,43,0.00,,OVC060,0.00,VWS V14.01,2013-05-14 01:30:00,
2013-05-13 21:31:00,43.3,22.4,29.38,SSW,202,0.0,0.0,43,0.00,,OVC060,0.00,VWS V14.01,2013-05-14 01:31:00,
2013-05-13 21:32:00,43.3,22.4,29.38,SSW,202,0.0,0.0,43,0.00,,OVC060,0.00,VWS V14.01,2013-05-14 01:32:00,
2013-05-13 21:33:00,43.3,22.4,29.38,SSW,202,0.0,0.0,43,0.00,,OVC060,0.00,VWS V14.01,2013-05-14 01:33:00,
2013-05-13 21:34:00,43.3,22.4,29.38,SSW,202,0.0,0.0,43,0.00,,OVC060,0.00,VWS V14.01,2013-05-14 01:34:00,
2013-05-13 21:35:00,43.3,22.4,29.38,SSW,202,0.0,0.0,43,0.00,,OVC060,0.00,VWS V14.01,2013-05-14 01:35:00,
2013-05-13 21:36:00,43.3,22.4,29.38,SSW,202,0.0,0.0,43,0.00,,OVC060,0.00,VWS V14.01,2013-05-14 01:36:00,
2013-05-13 21:37:00,43.3,22.4,29.38,SSW,202,0.0,0.0,43,0.00,,OVC060,0.00,VWS V14.01,2013-05-14 01:37:00,
2013-05-13 21:38:00,43.3,22.4,29.38,SSW,202,0.0,0.0,43,0.00,,OVC060,0.00,VWS V14.01,2013-05-14 01:38:00,
2013-05-13 21:39:00,43.3,22.4,29.38,SSW,202,0.0,0.0,43,0.00,,OVC060,0.00,VWS V14.01,2013-05-14 01:39:00,
2013-05-13 21:40:00,43.2,23.3,29.38,SSW,202,0.0,0.0,45,0.00,,OVC060,0.00,VWS V14.01,2013-05-14 01:40:00,
2013-05-13 21:41:00,43.2,23.8,29.38,SSW,202,0.0,0.0,46,0.00,,OVC060,0.00,VWS V14.01,2013-05-14 01:41:00,
2013-05-13 21:42:00,43.2,23.8,29.38,SSW,202,0.0,0.0,46,0.00,,OVC060,0.00,VWS V14.01,2013-05-14 01:42:00,
2013-05-13 21:43:00,43.2,23.8,29.38,SSW,202,0.0,0.0,46,0.00,,OVC060,0.00,VWS V14.01,2013-05-14 01:43:00,
2013-05-13 21:44:00,43.2,23.8,29.38,SSW,202,0.0,0.0,46,0.00,,OVC060,0.00,VWS V14.01,2013-05-14 01:44:00,
2013-05-13 21:45:00,43.0,23.1,29.38,SSW,202,0.0,0.0,45,0.00,,OVC060,0.00,VWS V14.01,2013-05-14 01:45:00,
2013-05-13 21:46:00,43.0,23.1,29.38,SSW,202,0.0,0.0,45,0.00,,OVC060,0.00,VWS V14.01,2013-05-14 01:46:00,
2013-05-13 21:47:00,43.0,23.1,29.38,SSW,202,0.0,0.0,45,0.00,,OVC060,0.00,VWS V14.01,2013-05-14 01:47:00,
2013-05-13 21:48:00,43.0,22.6,29.41,SSW,202,0.0,0.0,44,0.00,,OVC060,0.00,VWS V14.01,2013-05-14 01:48:00,
2013-05-13 21:49:00,43.0,22.6,29.41,SSW,202,0.0,0.0,44,0.00,,OVC060,0.00,VWS V14.01,2013-05-14 01:49:00,
2013-05-13 21:50:00,43.0,23.1,29.41,SSW,202,0.0,0.0,45,0.00,,OVC060,0.00,VWS V14.01,2013-05-14 01:50:00,
2013-05-13 21:51:00,43.0,23.1,29.41,WNW,292,0.0,0.0,45,0.00,,OVC060,0.00,VWS V14.01,2013-05-14 01:51:00,
2013-05-13 21:52:00,43.0,23.1,29.41,WNW,292,0.0,0.0,45,0.00,,OVC060,0.00,VWS V14.01,2013-05-14 01:52:00,
2013-05-13 21:53:00,43.0,23.1,29.41,WNW,292,0.0,0.0,45,0.00,,OVC060,0.00,VWS V14.01,2013-05-14 01:53:00,
2013-05-13 21:54:00,43.0,23.1,29.41,WNW,292,0.0,0.0,45,0.00,,OVC060,0.00,VWS V14.01,2013-05-14 01:54:00,
2013-05-13 21:55:00,43.0,23.1,29.41,WNW,292,0.0,0.0,45,0.00,,OVC060,0.00,VWS V14.01,2013-05-14 01:55:00,
2013-05-13 21:56:00,43.0,23.1,29.41,WNW,292,0.0,0.0,45,0.00,,OVC060,0.00,VWS V14.01,2013-05-14 01:56:00,
2013-05-13 21:57:00,43.0,23.1,29.41,WNW,292,0.0,0.0,45,0.00,,OVC060,0.00,VWS V14.01,2013-05-14 01:57:00,
2013-05-13 21:58:00,43.0,23.1,29.41,WNW,292,0.0,0.0,45,0.00,,OVC060,0.00,VWS V14.01,2013-05-14 01:58:00,
2013-05-13 21:59:00,43.0,23.1,29.41,WNW,292,0.0,0.0,45,0.00,,OVC060,0.00,VWS V14.01,2013-05-14 01:59:00,
2013-05-13 22:00:00,43.0,23.1,29.41,WNW,292,0.0,0.0,45,0.00,,OVC060,0.00,VWS V14.01,2013-05-14 02:00:00,
2013-05-13 22:03:00,43.0,24.1,29.41,South,180,0.0,0.0,47,0.00,,OVC060,0.00,VWS V14.01,2013-05-14 02:03:00,
2013-05-13 22:04:00,43.0,24.1,29.41,South,180,0.0,0.0,47,0.00,,OVC060,0.00,VWS V14.01,2013-05-14 02:04:00,
2013-05-13 22:05:00,43.0,24.1,29.41,South,180,0.0,0.0,47,0.00,,OVC060,0.00,VWS V14.01,2013-05-14 02:05:00,
2013-05-13 22:06:00,43.0,23.6,29.41,South,180,0.0,0.0,46,0.00,,OVC060,0.00,VWS V14.01,2013-05-14 02:06:00,
2013-05-13 22:07:00,43.0,23.6,29.41,ENE,68,0.0,0.0,46,0.00,,OVC060,0.00,VWS V14.01,2013-05-14 02:07:00,
2013-05-13 22:08:00,43.0,23.6,29.41,ENE,68,0.0,0.0,46,0.00,,OVC060,0.00,VWS V14.01,2013-05-14 02:08:00,
2013-05-13 22:09:00,43.0,23.6,29.41,East,90,0.0,0.0,46,0.00,,OVC060,0.00,VWS V14.01,2013-05-14 02:09:00,
2013-05-13 22:10:00,43.0,23.6,29.41,East,90,0.0,0.0,46,0.00,,OVC060,0.00,VWS V14.01,2013-05-14 02:10:00,
2013-05-13 22:11:00,43.0,23.6,29.41,East,90,0.0,0.0,46,0.00,,OVC060,0.00,VWS V14.01,2013-05-14 02:11:00,
2013-05-13 22:12:00,43.0,23.6,29.41,ESE,112,0.0,0.0,46,0.00,,OVC060,0.00,VWS V14.01,2013-05-14 02:12:00,
2013-05-13 22:13:00,43.0,23.6,29.41,ESE,112,0.0,0.0,46,0.00,,OVC060,0.00,VWS V14.01,2013-05-14 02:13:00,
2013-05-13 22:14:00,43.0,24.1,29.41,ESE,112,0.0,0.0,47,0.00,,OVC060,0.00,VWS V14.01,2013-05-14 02:14:00,
2013-05-13 22:15:00,43.0,24.1,29.41,SSE,158,0.0,0.0,47,0.00,,OVC060,0.00,VWS V14.01,2013-05-14 02:15:00,
2013-05-13 22:17:00,43.0,24.6,29.41,SSE,158,0.0,0.0,48,0.00,,OVC060,0.00,VWS V14.01,2013-05-14 02:17:00,
2013-05-13 22:18:00,43.0,24.6,29.41,SSE,158,0.0,0.0,48,0.00,,OVC060,0.00,VWS V14.01,2013-05-14 02:18:00,
2013-05-13 22:19:00,43.0,24.6,29.41,SSW,202,0.0,0.0,48,0.00,,OVC060,0.00,VWS V14.01,2013-05-14 02:19:00,
2013-05-13 22:20:00,42.8,24.5,29.41,SSW,202,0.0,0.0,48,0.00,,OVC060,0.00,VWS V14.01,2013-05-14 02:20:00,
2013-05-13 22:21:00,43.0,24.6,29.41,SSW,202,0.0,0.0,48,0.00,,OVC060,0.00,VWS V14.01,2013-05-14 02:21:00,
2013-05-13 22:22:00,43.0,24.6,29.41,SSW,202,0.0,0.0,48,0.00,,OVC060,0.00,VWS V14.01,2013-05-14 02:22:00,
2013-05-13 22:23:00,42.8,24.5,29.41,SSW,202,0.0,0.0,48,0.00,,OVC060,0.00,VWS V14.01,2013-05-14 02:23:00,
2013-05-13 22:24:00,42.8,24.5,29.41,SSE,158,0.0,0.0,48,0.00,,OVC060,0.00,VWS V14.01,2013-05-14 02:24:00,
2013-05-13 22:25:00,42.8,24.5,29.41,SSE,158,0.0,0.0,48,0.00,,OVC060,0.00,VWS V14.01,2013-05-14 02:25:00,
2013-05-13 22:27:00,42.8,24.5,29.41,SSE,158,0.0,0.0,48,0.00,,OVC060,0.00,VWS V14.01,2013-05-14 02:27:00,
2013-05-13 22:28:00,42.8,24.5,29.41,SSE,158,0.0,0.0,48,0.00,,OVC060,0.00,VWS V14.01,2013-05-14 02:28:00,
2013-05-13 22:29:00,42.8,24.5,29.41,SSE,158,0.0,0.0,48,0.00,,OVC060,0.00,VWS V14.01,2013-05-14 02:29:00,
2013-05-13 22:30:00,42.8,25.0,29.41,SSE,158,0.0,0.0,49,0.00,,OVC060,0.00,VWS V14.01,2013-05-14 02:30:00,
2013-05-13 22:31:00,42.8,25.0,29.41,SSE,158,0.0,0.0,49,0.00,,OVC060,0.00,VWS V14.01,2013-05-14 02:31:00,
2013-05-13 22:32:00,42.8,25.0,29.41,SSW,202,0.0,0.0,49,0.00,,OVC060,0.00,VWS V14.01,2013-05-14 02:32:00,
2013-05-13 22:33:00,42.8,25.0,29.41,SSW,202,0.0,0.0,49,0.00,,OVC060,0.00,VWS V14.01,2013-05-14 02:33:00,
2013-05-13 22:34:00,42.8,25.0,29.41,SSW,202,0.0,0.0,49,0.00,,OVC060,0.00,VWS V14.01,2013-05-14 02:34:00,
2013-05-13 22:35:00,42.8,25.0,29.41,SSW,202,0.0,0.0,49,0.00,,OVC060,0.00,VWS V14.01,2013-05-14 02:35:00,
2013-05-13 22:36:00,42.8,25.0,29.41,SSW,202,0.0,0.0,49,0.00,,OVC060,0.00,VWS V14.01,2013-05-14 02:36:00,
2013-05-13 22:37:00,42.8,25.0,29.41,South,180,0.0,0.0,49,0.00,,OVC060,0.00,VWS V14.01,2013-05-14 02:37:00,
2013-05-13 22:38:00,42.8,25.0,29.41,South,180,0.0,0.0,49,0.00,,OVC060,0.00,VWS V14.01,2013-05-14 02:38:00,
2013-05-13 22:39:00,42.8,25.0,29.41,South,180,0.0,0.0,49,0.00,,OVC060,0.00,VWS V14.01,2013-05-14 02:39:00,
2013-05-13 22:40:00,42.8,25.0,29.41,South,180,0.0,0.0,49,0.00,,OVC060,0.00,VWS V14.01,2013-05-14 02:40:00,
2013-05-13 22:41:00,42.8,25.5,29.41,South,180,0.0,0.0,50,0.00,,OVC060,0.00,VWS V14.01,2013-05-14 02:41:00,
2013-05-13 22:42:00,42.6,25.3,29.41,South,180,0.0,0.0,50,0.00,,OVC060,0.00,VWS V14.01,2013-05-14 02:42:00,
2013-05-13 22:43:00,42.6,25.3,29.41,South,180,0.0,0.0,50,0.00,,OVC060,0.00,VWS V14.01,2013-05-14 02:43:00,
2013-05-13 22:44:00,42.6,25.3,29.41,South,180,0.0,0.0,50,0.00,,OVC060,0.00,VWS V14.01,2013-05-14 02:44:00,
2013-05-13 22:45:00,42.6,25.3,29.41,South,180,0.0,0.0,50,0.00,,OVC060,0.00,VWS V14.01,2013-05-14 02:45:00,
2013-05-13 22:46:00,42.6,25.3,29.41,SSW,202,0.0,0.0,50,0.00,,OVC060,0.00,VWS V14.01,2013-05-14 02:46:00,
2013-05-13 22:47:00,42.6,25.3,29.41,SW,225,0.0,0.0,50,0.00,,OVC060,0.00,VWS V14.01,2013-05-14 02:47:00,
2013-05-13 22:48:00,42.6,25.3,29.41,SW,225,0.0,0.0,50,0.00,,OVC060,0.00,VWS V14.01,2013-05-14 02:48:00,
2013-05-13 22:49:00,42.6,25.3,29.41,WNW,292,0.0,0.0,50,0.00,,OVC060,0.00,VWS V14.01,2013-05-14 02:49:00,
2013-05-13 22:50:00,42.6,25.3,29.41,NW,315,0.0,0.0,50,0.00,,OVC060,0.00,VWS V14.01,2013-05-14 02:50:00,
2013-05-13 22:51:00,42.6,25.3,29.41,NW,315,0.0,0.0,50,0.00,,OVC060,0.00,VWS V14.01,2013-05-14 02:51:00,
2013-05-13 22:52:00,42.6,25.3,29.41,NNW,338,0.0,0.0,50,0.00,,OVC060,0.00,VWS V14.01,2013-05-14 02:52:00,
2013-05-13 22:53:00,42.6,25.3,29.41,NNW,338,0.0,0.0,50,0.00,,OVC060,0.00,VWS V14.01,2013-05-14 02:53:00,
2013-05-13 22:54:00,42.6,25.3,29.41,NNW,338,0.0,0.0,50,0.00,,OVC060,0.00,VWS V14.01,2013-05-14 02:54:00,
2013-05-13 22:55:00,42.8,25.5,29.41,NNW,338,0.0,0.0,50,0.00,,OVC060,0.00,VWS V14.01,2013-05-14 02:55:00,
2013-05-13 22:56:00,42.8,25.5,29.41,NNW,338,0.0,0.0,50,0.00,,OVC060,0.00,VWS V14.01,2013-05-14 02:56:00,
2013-05-13 22:57:00,42.8,25.9,29.41,NNW,338,0.0,0.0,51,0.00,,OVC060,0.00,VWS V14.01,2013-05-14 02:57:00,
2013-05-13 22:58:00,42.8,26.4,29.41,NNW,338,0.0,0.0,52,0.00,,OVC060,0.00,VWS V14.01,2013-05-14 02:58:00,
2013-05-13 22:59:00,42.8,26.4,29.41,NNW,338,0.0,0.0,52,0.00,,OVC060,0.00,VWS V14.01,2013-05-14 02:59:00,
2013-05-13 23:00:00,42.8,26.4,29.41,NNW,338,0.0,0.0,52,0.00,,OVC060,0.00,VWS V14.01,2013-05-14 03:00:00,
2013-05-13 23:01:00,42.8,26.4,29.41,WNW,292,0.0,0.0,52,0.00,,OVC060,0.00,VWS V14.01,2013-05-14 03:01:00,
2013-05-13 23:02:00,42.8,26.4,29.41,SSW,202,0.0,0.0,52,0.00,,OVC060,0.00,VWS V14.01,2013-05-14 03:02:00,
2013-05-13 23:03:00,42.8,26.4,29.41,SSW,202,0.0,0.0,52,0.00,,OVC060,0.00,VWS V14.01,2013-05-14 03:03:00,
2013-05-13 23:04:00,42.8,26.4,29.41,SSW,202,0.0,0.0,52,0.00,,OVC060,0.00,VWS V14.01,2013-05-14 03:04:00,
2013-05-13 23:05:00,42.8,26.4,29.41,SSW,202,0.0,0.0,52,0.00,,OVC060,0.00,VWS V14.01,2013-05-14 03:05:00,
2013-05-13 23:06:00,42.8,26.4,29.41,SSW,202,0.0,0.0,52,0.00,,OVC060,0.00,VWS V14.01,2013-05-14 03:06:00,
2013-05-13 23:08:00,42.8,26.4,29.41,SSW,202,0.0,0.0,52,0.00,,OVC060,0.00,VWS V14.01,2013-05-14 03:08:00,
2013-05-13 23:09:00,42.8,26.4,29.41,SSW,202,0.0,0.0,52,0.00,,OVC060,0.00,VWS V14.01,2013-05-14 03:09:00,
2013-05-13 23:10:00,42.8,26.4,29.41,SSW,202,0.0,0.0,52,0.00,,OVC060,0.00,VWS V14.01,2013-05-14 03:10:00,
2013-05-13 23:11:00,42.6,26.2,29.41,SSW,202,0.0,0.0,52,0.00,,OVC060,0.00,VWS V14.01,2013-05-14 03:11:00,
2013-05-13 23:12:00,42.6,26.2,29.41,SSW,202,0.0,0.0,52,0.00,,OVC060,0.00,VWS V14.01,2013-05-14 03:12:00,
2013-05-13 23:13:00,42.6,26.7,29.41,SSW,202,0.0,0.0,53,0.00,,OVC060,0.00,VWS V14.01,2013-05-14 03:13:00,
2013-05-13 23:14:00,42.6,26.7,29.41,SSW,202,0.0,0.0,53,0.00,,OVC060,0.00,VWS V14.01,2013-05-14 03:14:00,
2013-05-13 23:15:00,42.6,26.7,29.41,SSW,202,0.0,0.0,53,0.00,,OVC060,0.00,VWS V14.01,2013-05-14 03:15:00,
2013-05-13 23:16:00,42.6,26.7,29.41,SSW,202,0.0,0.0,53,0.00,,OVC060,0.00,VWS V14.01,2013-05-14 03:16:00,
2013-05-13 23:17:00,42.6,26.7,29.41,SSW,202,0.0,0.0,53,0.00,,OVC060,0.00,VWS V14.01,2013-05-14 03:17:00,
2013-05-13 23:18:00,42.4,26.5,29.41,SSW,202,0.0,0.0,53,0.00,,OVC060,0.00,VWS V14.01,2013-05-14 03:18:00,